Flag for Finland Weather past 2 weeks in Pori, Finland

Now
52 °F

Overcast.


Feels Like: 51 °F
Forecast: 42 / 62 °F
Wind: 5 mph from Northeast

Location: Pori Airport

Current Time: Aug 30, 2014 at 11:56:08 PM

Latest Report: Aug 30, 2014 at 11:20 PM


Visibility: N/A

Pressure: 30.12 "Hg

Humidity: 72%

Dew point: 43 °F

Location of PoriLocation

Historic Weather in Pori — Graph

°F

Pori temperature yesterday

Maximum temperature yesterday: 59 °F (at 5:50 PM)
Minimum temperature yesterday: 52 °F (at 5:20 AM)
Average temperature yesterday: 55 °F

Past Weeks' High & Low Weather Summary

 TemperatureHumidityPressure
High68 °F (Aug 17, 3:50 PM)100% (Aug 15, 11:50 PM)30.12 "Hg (Aug 15, 11:50 PM)
Low45 °F (Aug 17, 6:20 AM)46% (Aug 16, 4:20 PM)29.33 "Hg (Aug 18, 9:50 AM)
Average57 °F83%29.62 "Hg
* Reported Aug 15 10:20 PM — Aug 30 10:20 PM, Pori, Weather by CustomWeather, © 2014

Note: Actual official high and low records may vary slightly from our data, if they occured in-between our weather recording intervals... More about our weather records

Advertising

Pori weather history for previous 24 hours

 ConditionsComfort  
Time TempWeatherWind HumidityBarometerVisibility
10:20 PM
Aug 30
54 °FOvercast.5 mph63%30.12 "HgN/A
9:50 PM54 °FOvercast.6 mph63%30.09 "HgN/A
9:20 PM52 °FPartly sunny.7 mph77%30.09 "HgN/A
8:20 PM55 °FScattered clouds.5 mph59%30.09 "HgN/A
7:50 PM55 °FScattered clouds.5 mph59%30.09 "HgN/A
7:20 PM57 °FScattered clouds.5 mph51%30.07 "HgN/A
6:50 PM57 °FPartly sunny.7 mph51%30.07 "HgN/A
6:20 PM59 °FScattered clouds.6 mph48%30.07 "HgN/A
5:50 PM57 °FScattered clouds.5 mph51%30.07 "HgN/A
5:20 PM57 °FScattered clouds.7 mph51%30.07 "HgN/A
4:50 PM59 °FScattered clouds.8 mph48%30.07 "HgN/A
4:20 PM57 °FScattered clouds.8 mph51%30.07 "HgN/A
3:50 PM57 °FPassing clouds.8 mph51%30.07 "HgN/A
3:20 PM57 °FScattered clouds.8 mph51%30.07 "HgN/A
2:50 PM57 °FPartly sunny.9 mph55%30.07 "HgN/A
2:20 PM57 °FPartly sunny.9 mph55%30.07 "HgN/A
1:50 PM59 °FPartly sunny.8 mph48%30.07 "HgN/A
1:20 PM57 °FScattered clouds.8 mph51%30.07 "HgN/A
12:50 PM59 °FPartly sunny.7 mph48%30.07 "HgN/A
12:20 PM57 °FPassing clouds.7 mph48%30.07 "HgN/A
11:50 AM57 °FScattered clouds.9 mph48%30.07 "HgN/A
11:20 AM57 °FPassing clouds.9 mph48%30.07 "HgN/A
10:50 AM55 °FPassing clouds.12 mph51%30.07 "HgN/A
10:20 AM55 °FPassing clouds.9 mph59%30.07 "HgN/A
9:50 AM54 °FPassing clouds.7 mph72%30.07 "HgN/A
9:20 AM54 °FPartly sunny.6 mph77%30.07 "HgN/A
8:50 AM50 °FOvercast.5 mph88%30.07 "HgN/A
8:20 AM48 °FPartly sunny.7 mph94%30.07 "HgN/A
7:50 AM48 °FPartly sunny.6 mph87%30.04 "HgN/A
7:20 AM48 °FOvercast.6 mph94%30.04 "HgN/A
6:50 AM48 °FOvercast.3 mph94%30.04 "HgN/A
6:20 AM48 °FOvercast.2 mph94%30.04 "HgN/A
5:50 AM48 °FPassing clouds.2 mph94%30.01 "HgN/A
5:20 AM48 °FPassing clouds.5 mph94%30.01 "HgN/A
4:50 AM48 °FPassing clouds.3 mph94%30.01 "HgN/A
4:20 AM50 °FPassing clouds.3 mph88%30.01 "HgN/A
3:50 AM48 °FPassing clouds.2 mph94%30.01 "HgN/A
3:20 AM48 °FPassing clouds.3 mph94%30.01 "HgN/A
2:50 AM48 °FPassing clouds.3 mph94%30.01 "HgN/A
2:20 AM48 °FPassing clouds.2 mph94%30.01 "HgN/A
1:50 AM46 °FPassing clouds.1 mph93%30.01 "HgN/A
1:20 AM50 °FPassing clouds.3 mph88%30.01 "HgN/A
12:50 AM48 °FPassing clouds.3 mph94%29.98 "HgN/A
12:20 AM50 °FPassing clouds.6 mph94%29.98 "HgN/A
Weather by CustomWeather, © 2014

See weather overviewHow to use our weather pages